Regional Weather Roundup
Issued by NWS

Home | Current Version | Previous Version | Text Only | Print | Product List | Glossary Off
Versions: 1 2 3 4 5 6 7 8 9 10 11 12 13 14 15 16 17 18 19 20 21 22 23 24 25 26 27

000
ASUS45 KBOI 241210
RWRID

IDAHO REGIONAL WEATHER ROUNDUP
NATIONAL WEATHER SERVICE BOISE ID
600 AM MDT MON JUL 24 2017

NOTE: "FAIR" INDICATES FEW OR NO CLOUDS BELOW 12000 FEET
WITH NO SIGNIFICANT WEATHER AND/OR OBSTRUCTIONS TO VISIBILITY

IDZ012-014-241300-
SOUTHWEST IDAHO


CITY           SKY/WX    TMP DP  RH WIND       PRES   REMARKS
BOISE          CLOUDY    74  40  29 CALM      29.87S
CALDWELL       CLOUDY    65  57  75 W3        29.86F
MOUNTAIN HOME  CLOUDY    73  40  29 N5        29.87F
$$

IDZ016-017-241300-
SOUTHCENTRAL IDAHO


CITY           SKY/WX    TMP DP  RH WIND       PRES   REMARKS
BURLEY         CLOUDY    64  48  56 S6        29.96F
JEROME         MOCLDY    66  46  48 E6        29.97R
TWIN FALLS     PTCLDY    66  46  48 S9        29.97R
$$

IDZ019>023-241300-
SOUTHEAST IDAHO


CITY           SKY/WX    TMP DP  RH WIND       PRES   REMARKS
IDAHO FALLS    CLOUDY    59  46  62 SW3       30.03R
POCATELLO      PTCLDY    57  42  57 S5        30.01S
REXBURG        CLOUDY    60  43  53 S8        30.02R
$$

IDZ006-010-011-018-031-032-241300-
CENTRAL IDAHO MOUNTAINS


CITY           SKY/WX    TMP DP  RH WIND       PRES   REMARKS
MCCALL         MOCLDY    54  45  71 CALM      30.06R
HAILEY         MOCLDY    59  34  38 NW15      30.09S
STANLEY          N/A     44  33  65 CALM      30.20S
SALMON         NOT AVBL
CHALLIS        MOCLDY    56  36  47 SW3       30.06S
$$

IDZ002-004-006-007-026-241300-
NORTHERN IDAHO


CITY           SKY/WX    TMP DP  RH WIND       PRES   REMARKS
LEWISTON       CLEAR     71  49  45 N3        29.88R
LOWELL           N/A     60  54  80 NW3       29.92R
COEUR D`ALENE  CLEAR     60  47  61 CALM      29.92R
MULLAN PASS    CLEAR     59  39  47 VRB3      30.07S
$$




USA.gov is the U.S. government's official web portal to all federal, state and local government web resources and services.